This demonstration page uses our WeatherBlox Daily Observations layout. Learn more.

Left ArrowRight Arrow

39.92423, -83.80882

Hourly Observations for August 2, 2020

Temp ( °F °C ) Dew Point ( °F °C ) Humidity (%) Winds ( mph kmh ) Pressure ( in mb ) Visibility ( mi km ) Precip ( " mm )
12:51 am 00:51 Mostly Cloudy 72 22 72 22 100 100 S 8 13 29.74 1007 10 16 N/A
12:56 am 00:56 Mostly Cloudy 71 21.7 71 21.7 100 100 S 8 13 29.76 1008 10 16 N/A
1:06 am 01:06 Cloudy 72 22 72 22 100 100 S 6 9 29.74 1007 10 16 N/A
1:56 am 01:56 Cloudy 71 21.7 71 21.7 100 100 SSW 8 13 29.74 1007 10 16 0.01 0.25
2:56 am 02:56 Cloudy 71 21.7 71 21.7 100 100 SW 9 15 29.73 1007 8 13 N/A
3:56 am 03:56 Cloudy 71 21.7 71 21.7 100 100 SW 12 19 29.73 1007 10 16 N/A
4:56 am 04:56 Cloudy with Light Rain 70 21.1 70 21.1 100 100 SW 8 13 29.74 1007 7 11 0.01 0.25
5:52 am 05:52 Cloudy 70 21 70 21 100 100 SW 23 37 29.74 1007 10 16 0.01 0.25
5:56 am 05:56 Cloudy 69 20.6 69 20.6 100 100 SW 17 28 29.75 1007 10 16 0.01 0.25
6:24 am 06:24 Cloudy 70 21 70 21 100 100 SW 15 24 29.74 1007 10 16 N/A
6:56 am 06:56 Cloudy with Mist and Fog 68 20 68 20 100 100 SW 15 24 29.78 1008 4 6 N/A
7:22 am 07:22 Cloudy with Light Rain 66 19 66 19 100 100 SW 18 30 29.78 1008 2 3 0.00 0.00
7:32 am 07:32 Cloudy with Light Rain 66 19 66 19 100 100 SW 14 22 29.78 1008 5 8 0.01 0.25
7:56 am 07:56 Cloudy with Light Rain 67 19.4 67 19.4 100 100 SW 16 26 29.80 1009 4 6 0.01 0.25
8:45 am 08:45 Cloudy 66 19 66 19 100 100 WSW 16 26 29.82 1010 10 16 0.05 1.27
8:56 am 08:56 Cloudy 66 18.9 66 18.9 100 100 WSW 16 26 29.83 1010 10 16 0.05 1.27
9:23 am 09:23 Cloudy with Light Rain 64 18 64 18 100 100 WSW 12 19 29.83 1010 3 4 0.00 0.00
9:35 am 09:35 Cloudy with Light Rain 64 18 64 18 100 100 SW 14 22 29.84 1010 2 3 0.01 0.25
9:56 am 09:56 Cloudy with Light Rain 64 17.8 64 17.8 100 100 WSW 15 24 29.86 1011 2 3 0.01 0.25
10:07 am 10:07 Cloudy with Light Rain 64 18 64 18 100 100 WSW 17 28 29.85 1011 3 5 0.07 1.78
10:56 am 10:56 Cloudy with Light Rain 65 18.3 65 18.3 100 100 WSW 9 15 29.88 1012 3 5 0.07 1.78
10:59 am 10:59 Cloudy with Light Rain 64 18 64 18 100 100 W 14 22 29.88 1012 3 4 0.00 0.00
11:15 am 11:15 Cloudy with Light Rain 64 18 64 18 100 100 W 13 20 29.88 1012 3 5 0.00 0.00
11:56 am 11:56 Cloudy with Light Rain 65 18.3 65 18.3 100 100 W 14 22 29.90 1013 6 10 0.00 0.00
12:56 pm 12:56 Cloudy with Light Rain 66 18.9 66 18.9 100 100 W 13 20 29.92 1013 3 5 0.00 0.00
1:06 pm 13:06 Cloudy with Light Rain 64 18 64 18 100 100 W 12 19 29.91 1013 2 3 0.01 0.25
1:17 pm 13:17 Cloudy with Light Rain 64 18 64 18 100 100 W 12 19 29.92 1013 3 5 0.01 0.25
1:26 pm 13:26 Cloudy with Light Rain 66 19 66 19 100 100 W 9 15 29.92 1013 3 4 0.01 0.25
1:46 pm 13:46 Cloudy with Light Rain 66 19 66 19 100 100 W 10 17 29.92 1013 5 8 0.01 0.25
1:56 pm 13:56 Cloudy 67 19.4 67 19.4 100 100 W 12 19 29.93 1014 10 16 0.01 0.25
2:56 pm 14:56 Cloudy 72 22.2 67 19.4 84 84 W 9 15 29.93 1014 10 16 N/A
3:38 pm 15:38 Cloudy 73 23 66 19 78 78 WSW 10 17 29.91 1013 10 16 N/A
3:56 pm 15:56 Cloudy 73 22.8 67 19.4 81 81 WSW 9 15 29.93 1014 10 16 N/A
4:56 pm 16:56 Mostly Cloudy 76 24.4 65 18.3 69 69 W 9 15 29.93 1013 10 16 N/A
5:56 pm 17:56 Mostly Cloudy 75 23.9 66 18.9 74 74 WSW 5 7 29.93 1014 10 16 N/A
6:56 pm 18:56 Partly Cloudy 76 24.4 67 19.4 74 74 SSW 3 6 29.93 1014 10 16 N/A
7:56 pm 19:56 Mostly Sunny 73 22.8 68 20 84 84 N N/A 29.94 1014 10 16 N/A
8:56 pm 20:56 Mostly Cloudy 70 21.1 70 21.1 100 100 S 3 6 29.96 1015 10 16 N/A
9:56 pm 21:56 Partly Cloudy 69 20.6 68 20 96 96 S 3 6 29.98 1015 10 16 N/A
10:56 pm 22:56 Mostly Cloudy 68 20 68 20 100 100 S 3 6 29.98 1015 10 16 N/A
11:56 pm 23:56 Mostly Clear 67 19.4 67 19.4 100 100 NNW 5 7 29.99 1016 10 16 N/A

Powered by AerisWeather